Regional Weather Roundup
Issued by NWS

Home | Current Version | Previous Version | Graphics & Text | Print | Product List | Glossary On
Versions: 1 2 3 4 5 6 7 8 9 10 11 12 13 14 15 16 17 18 19 20 21 22 23 24 25 26 27 28 29 30 31 32 33 34 35 36 37 38 39 40 41 42 43 44 45 46 47 48 49 50
511
ASUS45 KTFX 140310
RWRMT
MONTANA REGIONAL WEATHER ROUNDUP
NATIONAL WEATHER SERVICE GREAT FALLS MT
800 PM MST WED DEC 13 2017

NOTE: "FAIR" INDICATES FEW OR NO CLOUDS BELOW 12000 FEET WITH NO
SIGNIFICANT WEATHER AND/OR OBSTRUCTIONS TO VISIBILITY.

MTZ001>007-043-140400-
WEST OF THE DIVIDE

CITY           SKY/WX    TMP DP  RH WIND       PRES   REMARKS
KALISPELL      CLOUDY    21  19  92 CALM      30.50R
MISSOULA       FAIR      26  23  88 E6        30.46R WCI  19
BUTTE          CLOUDY    30  24  78 NW6       30.36R WCI  24
MULLAN PASS    CLOUDY    24  21  88 VRB3      30.34R FOG
ANACONDA         N/A     28  27  93 N3        30.39R
DEER LODGE       N/A     28  28 100 NE7       30.41R WCI  21
EUREKA           N/A     23  18  80 MISG      30.54R
HAMILTON         N/A     28  27  93 SW3       30.47R
LIBBY            N/A     25  21  86 S5        30.50R
PLAINS           N/A     24  18  78 CALM      30.47S
RONAN            N/A     25  22  88 CALM      30.47R
$$

MTZ008-052>055-140400-
SOUTHWEST MONTANA

CITY           SKY/WX    TMP DP  RH WIND       PRES   REMARKS
BOZEMAN        CLOUDY    28  26  92 W5        30.38R FOG
DILLON         CLOUDY    31  28  89 SE7       30.34R WCI  24
W YELLOWSTONE  CLOUDY    21  19  93 CALM      30.27R
ENNIS          CLOUDY    28  27  93 N12       30.38R WCI  18
THREE FORKS      N/A     25  23  91 CALM      30.33R
TWIN BRIDGES     N/A     32  24  72 CALM      30.28R
$$

MTZ009-010-012-014-046-048-049-054-140400-
EAST SLOPES AND CENTRAL MONTANA

CITY           SKY/WX    TMP DP  RH WIND       PRES   REMARKS
CUT BANK       FAIR      31  21  66 NW17      30.33R WCI  19
GREAT FALLS    CLOUDY    32  26  78 SW10      30.32S WCI  24
MALMSTROM AFB  CLOUDY    34  28  77 W12G21    30.33R WCI  26
HELENA         FAIR      26  23  88 S5        30.37S
BOWMANS CRNR   SNOWSHWR  26  25  99 SW8       30.32R FOG     WCI  17
CHOTEAU          N/A     34  19  55 NW8       30.35R WCI  27
CONRAD           N/A     35  24  64 W8        30.31  WCI  28
FAIRFIELD      MOCLDY    29  19  65 W5        30.32R
POWER          MOCLDY    30  19  63 W8        30.31R WCI  23
RAYNESFORD     CLOUDY    37  26  62 W10       30.30F WCI  30
ULM            MOCLDY    30  28  92 SE3       30.34S
$$

MTZ011-013-016-021-045-047-050-051-140400-
NORTH CENTRAL MONTANA

CITY           SKY/WX    TMP DP  RH WIND       PRES   REMARKS
HAVRE          FAIR      33  23  66 W12       30.26R WCI  24
LEWISTOWN      MOCLDY    34  26  72 W17       30.25F WCI  23
N BAR RANCH    FAIR      34  21  60 NW18G24   30.22F WCI  23
CHINOOK          N/A     37  25  60 W13       30.23R WCI  29
DENTON         CLOUDY    36  26  65 SW14      30.22F WCI  27
GEYSER         MOCLDY    35  25  67 W17       30.28F WCI  25
GRASS RANGE    FAIR      33  27  77 W28       30.18F WCI  20
STANFORD       MOCLDY    36  24  61 W21G28    30.26F WCI  25
WINIFRED       MOCLDY    35  25  66 W12       30.23S WCI  27
$$

MTZ017>020-022>027-061-062-140400-
NORTHEAST MONTANA

CITY           SKY/WX    TMP DP  RH WIND       PRES   REMARKS
GLASGOW        FAIR      29  23  78 W8        30.11R WCI  21
GLENDIVE       CLOUDY    38  26  62 NW22      30.08R WCI  27
JORDAN           N/A     33  23  66 W9        30.15S WCI  25
SIDNEY         MOCLDY    39  28  64 NW17      30.05S WCI  30
WOLF POINT     CLOUDY    37  26  64 W9        30.07F WCI  30
MALTA          PTCLDY    32  23  69 W7G16     30.17S WCI  26
PLENTYWOOD       N/A     32  28  86 CALM      30.00S
POPLAR           N/A     37  27  65 W9        30.06F WCI  31
SCOBEY           N/A     33  23  67 CALM      30.01F
$$

MTZ028>42-056>058-140400-
SOUTHCENTRAL AND SOUTHEAST MONTANA

CITY           SKY/WX    TMP DP  RH WIND       PRES   REMARKS
BAKER          LGT SNOW  33  32  96 W18       30.09R FOG     WCI  22
BILLINGS       MOCLDY    39  25  57 NW9       30.25R
LIVINGSTON     CLOUDY    33  30  88 W8        30.34R WCI  26
MILES CITY     CLOUDY    37  24  59 NW10      30.16R WCI  30
BIG TIMBER     CLOUDY    34  28  80 W20       30.33R WCI  22
FORSYTH          N/A     36  21  55 SW8       30.19S WCI  29
LAUREL           N/A     39  27  60 NW13      30.27S WCI  32
$$

REGIONAL REPORTS...DAKOTAS

CITY           SKY/WX    TMP DP  RH WIND       PRES   REMARKS
WILLISTON      MOCLDY    33  27  78 W7        30.01F WCI  27
MINOT          CLOUDY    33  26  75 W12       29.95F WCI  24
DICKINSON      MOCLDY    31  24  75 W10       29.99S WCI  22
BEACH          CLOUDY    34  27  75 W15       30.07S WCI  24
CROSBY         FAIR      30  30 100 W10       29.98S WCI  21
TIOGA          MOCLDY    28  28 100 W12       29.97F WCI  18
WATFORD CITY   FAIR      32  27  80 W7        30.01S WCI  26
BISMARCK       CLOUDY    34  25  69 NW10      30.01S WCI  26
GRAND FORKS    FLURRIES  19  16  88 N8        29.99R WCI   9
FARGO          CLOUDY    20  15  81 N10       29.98S WCI   9
BUFFALO SD       N/A     34  26  72 W13       30.00S WCI  25
RAPID CITY     FAIR      39  24  55 NW20      30.06S WCI  29
$$

REGIONAL REPORTS...WYOMING/IDAHO/WASHINGTON

CITY           SKY/WX    TMP DP  RH WIND       PRES   REMARKS
GILLETTE       CLOUDY    35  19  52 NW12      30.14R WCI  27
SHERIDAN       CLOUDY    38  26  62 NW17      30.21R WCI  28
BUFFALO WY     FAIR      37  22  54 N20       30.15R WCI  27
CODY           CLOUDY    31  28  89 CALM      30.27R
YELLOWSTONE LA   N/A     19  16  88 VRB5      30.26R
IDAHO FALLS    CLOUDY    24  22  91 SW3       30.33R FOG
SALMON         FAIR      21  19  92 CALM      30.44R
BOISE          CLOUDY    25  22  88 NW8       30.40R WCI  16
SPOKANE        CLOUDY    29  25  85 N5        30.53R
$$

REGIONAL REPORTS...ALBERTA

CITY           SKY/WX    TMP DP  RH WIND       PRES   REMARKS
EDMONTON       CLEAR     34  23  64 NW7       30.29R WCI  28
CALGARY        CLEAR     34  23  64 NW5       30.31R
LETHBRIDGE     CLEAR     30  23  74 W10G17    30.34R WCI  21
MEDICINE HAT   CLEAR     36  27  69 W18G24    30.27R WCI  25
$$

REGIONAL REPORTS...SASKATCHEWAN

CITY           SKY/WX    TMP DP  RH WIND       PRES   REMARKS
SWIFT CURRENT  CLOUDY    32  27  80 NW20      30.09R WCI  20
REGINA         PTCLDY    32  28  86 NW16G22   29.97S WCI  21
SASKATOON      MOCLDY    36  28  75 NW16G22   30.06R WCI  26
$$




USA.gov is the U.S. government's official web portal to all federal, state and local government web resources and services.